Regional Weather Roundup
Issued by NWS

Home | Current Version | Previous Version | Graphics & Text | Print | Product List | Glossary On
Versions: 1 2 3 4 5 6 7 8 9 10 11 12 13 14 15 16 17 18 19 20 21 22 23 24 25 26 27
000
ASUS43 KDMX 191207
RWRIA

WEATHER ROUNDUP FOR IOWA
NATIONAL WEATHER SERVICE DES MOINES IA
700 AM CDT SAT APR 19 2014

NOTE: "FAIR" INDICATES FEW OR NO CLOUDS BELOW 12,000 FEET WITH NO
SIGNIFICANT WEATHER AND/OR OBSTRUCTIONS TO VISIBILITY.

* - THESE STATIONS ARE NOT NWS STATIONS...THUS NOT UNDER NWS
QUALITY CONTROL.  THEY ALSO DO NOT REPORT WEATHER SUCH
AS PRECIPITATION OR FOG.

IAZ001>003-012>014-020>022-031>034-043>046-191300-
   NORTHWEST IOWA

CITY           SKY/WX    TMP DP  RH WIND       PRES   REMARKS
CARROLL *      CLEAR     46  39  76 SE10      30.09S
CHEROKEE *     PTCLDY    46  41  81 SE8       30.07R
DENISON *      CLEAR     50  39  66 S18G26    30.04F
LE MARS *      PTCLDY    54  41  62 S21       30.02R
ORANGE CITY *  CLEAR     52  39  62 SE13      30.01F
SHELDON *      CLEAR     48  41  76 SE20      30.00F
SIOUX CITY     PTCLDY    53  41  63 SE12      30.02R
6HR MIN TEMP:  52; 6HR MAX TEMP:  56;

SPENCER        CLEAR     47  39  74 SE18      30.06F
6HR MIN TEMP:  47; 6HR MAX TEMP:  51;

STORM LAKE *   CLEAR     48  41  76 SE14      30.08R
$$

IAZ055>058-069>071-079>083-090>094-191300-
   SOUTHWEST IOWA

CITY           SKY/WX    TMP DP  RH WIND       PRES   REMARKS
ATLANTIC *     CLEAR     50  39  66 S8G15     30.10R
AUDUBON *      CLEAR     52  37  58 S9        30.11R
CLARINDA *     CLEAR     50  41  71 S7        30.13R
COUNCIL BLFS * CLEAR     52  43  71 S14       30.06S
CRESTON *      CLEAR     46  39  76 SE12      30.13R
HARLAN  *      CLEAR     50  41  71 S12       30.11S
LAMONI         CLEAR     49  38  65 S10       30.15R
6HR MIN TEMP:  48; 6HR MAX TEMP:  52;

RED OAK *      CLEAR     52  41  66 S7        30.10R
SHENANDOAH *   PTCLDY    52  41  66 SE14      30.10S
$$

IAZ047>049-059>061-072>074-084-191300-
   CENTRAL IOWA

CITY           SKY/WX    TMP DP  RH WIND       PRES   REMARKS
AMES           CLEAR     44  31  60 SE12      30.17R
6HR MIN TEMP:  41; 6HR MAX TEMP:  49;

ANKENY *       CLEAR     45  32  61 SE8       30.17R
CHARITON *     CLEAR     48  36  61 SE10      30.17S
DES MOINES     MOCLDY    49  33  54 E8        30.16S
6HR MIN TEMP:  49; 6HR MAX TEMP:  53;

GRINNELL*      CLEAR     41  36  81 E12G18    30.22R FOG
KNOXVILLE *    CLEAR     45  30  57 SE8       30.19R
MARSHALLTOWN   CLEAR     41  35  79 SE17G24   30.20R HAZE
6HR MIN TEMP:  41; 6HR MAX TEMP:  50;

NEWTON *       CLEAR     43  37  81 SE14G21   30.20S
PELLA *        CLEAR     45  36  70 SE14      30.22R
PERRY *          N/A     43  34  70 E8        30.14R
$$

IAZ004>006-015-016-023>025-035-036-191300-
   NORTH CENTRAL IOWA

CITY           SKY/WX    TMP DP  RH WIND       PRES   REMARKS
ALGONA *       CLEAR     43  32  65 SE20      30.13S
CLARION *      CLEAR     43  34  70 SE18G25   30.16R
ESTHERVILLE    PTCLDY    42  34  73 SE18      30.08S
6HR MIN TEMP:  42; 6HR MAX TEMP:  48;

FORT DODGE *   CLEAR     45  30  57 SE12G20   30.14R
MASON CITY     CLEAR     38  33  82 SE17      30.21R WCI  28
6HR MIN TEMP:  38; 6HR MAX TEMP:  43;

FOREST CITY *  CLEAR     39  36  87 SE17G23   30.16F FOG     WCI  30
IOWA FALLS *     N/A     41  36  81 SE15      30.21R FOG
$$

IAZ007>011-017>019-026>030-037>042-050>054-066-191300-
   NORTHEAST IOWA

CITY           SKY/WX    TMP DP  RH WIND       PRES   REMARKS
CEDAR RAPIDS   MOCLDY    37  30  75 E12       30.26R WCI  29
6HR MIN TEMP:  37; 6HR MAX TEMP:  46;

CHARLES CITY * CLEAR     37  30  75 SE18G24   30.24R WCI  27
CLINTON *      PTCLDY    36  27  69 E10       30.35R WCI  28
DECORAH *      CLEAR     36  25  64 E10       30.28R WCI  28
DUBUQUE        CLEAR     36  25  64 E6        30.30S WCI  31
6HR MIN TEMP:  35; 6HR MAX TEMP:  41;

MONTICELLO *   CLEAR     37  28  70 SE12      30.30R WCI  30
OELWEIN *      CLEAR    N/A N/A N/A SE17G24   30.27R
WATERLOO       PTCLDY    38  29  70 SE16      30.25R WCI  29
6HR MIN TEMP:  38; 6HR MAX TEMP:  49;

$$

IAZ064-065-067-068-078-191300-
   EAST CENTRAL IOWA

CITY           SKY/WX    TMP DP  RH WIND       PRES   REMARKS
DAVENPORT      MOCLDY    37  28  70 E12       30.33R WCI  29
6HR MIN TEMP:  36; 6HR MAX TEMP:  42;

IOWA CITY      MOCLDY    38  30  73 E9        30.30R WCI  31
6HR MIN TEMP:  38; 6HR MAX TEMP:  47;

MT. PLEASANT * MOCLDY    41  32  70 SE10      30.28R
MUSCATINE *    CLEAR     41  27  56 SE8       30.31R
QUAD CITIES    MOCLDY    37  30  75 E9        30.31R WCI  30
6HR MIN TEMP:  34; 6HR MAX TEMP:  44;

$$

IAZ062-063-075>077-085>089-095>099-191300-
   SOUTHEAST IOWA

CITY           SKY/WX    TMP DP  RH WIND       PRES   REMARKS
BURLINGTON     PTCLDY    40  31  70 SE10      30.28R WCI  33
6HR MIN TEMP:  40; 6HR MAX TEMP:  50;

FAIRFIELD *    CLEAR     41  34  75 SE14G20   30.26R
FORT MADISON * CLEAR     43  34  70 SE12      30.29R
KEOKUK *       CLEAR     43  36  75 E10       30.27R
OSKALOOSA *      N/A     42  37  82 SE12      30.23S
CENTERVILLE *  CLEAR     45  36  70 SE10      30.22R
OTTUMWA        PTCLDY    42  36  79 SE9       30.23R HAZE
6HR MIN TEMP:  42; 6HR MAX TEMP:  52;

WASHINGTON *   CLEAR     39  34  81 SE10      30.28R WCI  32
$$

ABBREVIATIONS USED IN REMARKS
   TC - TEMPERATURES IN CELSIUS
  WCI - WIND CHILL INDEX
   HX - HEAT INDEX
  VSB - VISIBILITY
$$




USA.gov is the U.S. government's official web portal to all federal, state and local government web resources and services.